,,Stat6,,Stat2,,Stat8,,Stat9,,Stat10,,Wind1,,Wind1,
time,status,PA1M_AVG,status,PR1M_SUM,status,RH1M_AVG,status,SR1M_AVG,status,TA1M_AVG,status,W1dAve1m,status,W1sAve1m,
2009-06-27, 00:00:00,VALID,917.262,VALID,0.8,VALID,100,VALID,0,VALID,21.1451,VALID,202,VALID,0,
2009-06-27, 00:01:00,VALID,917.252,VALID,0.4,VALID,100,VALID,0,VALID,21.1451,VALID,94,VALID,0.000726744,
2009-06-27, 00:02:00,VALID,917.261,VALID,0.2,VALID,100,VALID,0,VALID,21.1805,VALID,21,VALID,0.000372024,
2009-06-27, 00:03:00,VALID,917.264,VALID,0.4,VALID,100,VALID,-0.0169808,VALID,21.1873,VALID,29,VALID,0,
2009-06-27, 00:04:00,VALID,917.285,VALID,0.2,VALID,100,VALID,-0.0169808,VALID,21.1935,VALID,29,VALID,0,
2009-06-27, 00:05:00,VALID,917.297,VALID,0.2,VALID,100,VALID,0,VALID,21.1802,VALID,34,VALID,0.0760789,
2009-06-27, 00:06:00,VALID,917.3,VALID,0.2,VALID,100,VALID,0,VALID,21.1608,VALID,30,VALID,0,
2009-06-27, 00:07:00,VALID,917.295,VALID,0,VALID,100,VALID,-0.0339617,VALID,21.1418,VALID,21,VALID,0,
2009-06-27, 00:08:00,VALID,917.292,VALID,0.2,VALID,100,VALID,-0.0169808,VALID,21.1445,VALID,22,VALID,0,
2009-06-27, 00:09:00,VALID,917.294,VALID,0.2,VALID,100,VALID,0,VALID,21.1835,VALID,25,VALID,0,
2009-06-27, 00:10:00,VALID,917.307,VALID,0,VALID,100,VALID,-0.0169808,VALID,21.19,VALID,25,VALID,0,
2009-06-27, 00:11:00,VALID,917.311,VALID,0.4,VALID,100,VALID,0,VALID,21.171,VALID,281,VALID,0,
2009-06-27, 00:12:00,VALID,917.295,VALID,0.6,VALID,100,VALID,-0.0169808,VALID,21.1221,VALID,225,VALID,0,
2009-06-27, 00:13:00,VALID,917.258,VALID,0.4,VALID,100,VALID,0,VALID,21.0931,VALID,197,VALID,0.000600962,
2009-06-27, 00:14:00,VALID,917.215,VALID,1.4,VALID,100,VALID,0,VALID,21.0734,VALID,266,VALID,0.00545058,
2009-06-27, 00:15:00,VALID,917.123,VALID,0.8,VALID,100,VALID,0,VALID,21.0444,VALID,316,VALID,0.00111607,
2009-06-27, 00:16:00,VALID,917.057,VALID,0.4,VALID,100,VALID,-0.0339617,VALID,21.0542,VALID,34,VALID,0.555859,
2009-06-27, 00:17:00,VALID,917.001,VALID,0.4,VALID,100,VALID,-0.0339617,VALID,21.0864,VALID,46,VALID,0.817336,
2009-06-27, 00:18:00,VALID,916.971,VALID,0.2,VALID,100,VALID,0,VALID,21.0736,VALID,15,VALID,0.498512,
2009-06-27, 00:19:00,VALID,916.94,VALID,0,VALID,100,VALID,-0.0169808,VALID,21.0671,VALID,6,VALID,0,
2009-06-27, 00:20:00,VALID,916.923,VALID,0,VALID,100,VALID,0,VALID,21.0474,VALID,31,VALID,0,
2009-06-27, 00:21:00,VALID,916.911,VALID,0.2,VALID,100,VALID,0,VALID,21.0671,VALID,19,VALID,0,
2009-06-27, 00:22:00,VALID,916.888,VALID,0,VALID,100,VALID,-0.0169808,VALID,21.0499,VALID,358,VALID,0,
2009-06-27, 00:23:00,VALID,916.871,VALID,0,VALID,100,VALID,0,VALID,21.0047,VALID,14,VALID,0,
2009-06-27, 00:24:00,VALID,916.832,VALID,0,VALID,100,VALID,-0.0169808,VALID,20.9922,VALID,33,VALID,0,
2009-06-27, 00:25:00,VALID,916.824,VALID,0,VALID,100,VALID,0,VALID,20.9757,VALID,8,VALID,0.214062,
2009-06-27, 00:26:00,VALID,916.795,VALID,0,VALID,100,VALID,0.0169808,VALID,20.9535,VALID,36,VALID,0,
2009-06-27, 00:27:00,VALID,916.76,VALID,0.2,VALID,100,VALID,0,VALID,20.953,VALID,39,VALID,0,
2009-06-27, 00:28:00,VALID,916.724,VALID,0,VALID,100,VALID,-0.0169808,VALID,20.9598,VALID,39,VALID,0,
2009-06-27, 00:29:00,VALID,916.7,VALID,0,VALID,100,VALID,0.0169808,VALID,20.9468,VALID,40,VALID,0,
2009-06-27, 00:30:00,VALID,916.67,VALID,0,VALID,100,VALID,-0.0509425,VALID,20.937,VALID,58,VALID,0,
2009-06-27, 00:31:00,VALID,916.641,VALID,0,VALID,100,VALID,0,VALID,20.9273,VALID,68,VALID,0,
2009-06-27, 00:32:00,VALID,916.628,VALID,0,VALID,100,VALID,0.0169808,VALID,20.927,VALID,68,VALID,0,
2009-06-27, 00:33:00,VALID,916.611,VALID,0,VALID,100,VALID,-0.0339617,VALID,20.953,VALID,68,VALID,0,
2009-06-27, 00:34:00,VALID,916.606,VALID,0,VALID,100,VALID,-0.0169808,VALID,20.9792,VALID,68,VALID,0,
2009-06-27, 00:35:00,VALID,916.601,VALID,0,VALID,100,VALID,0,VALID,21.0085,VALID,68,VALID,0,
2009-06-27, 00:36:00,VALID,916.625,VALID,0,VALID,100,VALID,-0.0169808,VALID,20.969,VALID,68,VALID,0,
2009-06-27, 00:37:00,VALID,916.624,VALID,0,VALID,100,VALID,-0.0169808,VALID,20.95,VALID,68,VALID,0,
2009-06-27, 00:38:00,VALID,916.644,VALID,0,VALID,100,VALID,0,VALID,20.9527,VALID,68,VALID,0,
2009-06-27, 00:39:00,VALID,916.684,VALID,0,VALID,100,VALID,0,VALID,20.9952,VALID,68,VALID,0,
2009-06-27, 00:40:00,VALID,916.719,VALID,0,VALID,100,VALID,-0.0339617,VALID,21.0377,VALID,68,VALID,0,
2009-06-27, 00:41:00,VALID,916.789,VALID,0,VALID,100,VALID,0,VALID,21.0766,VALID,68,VALID,0,
2009-06-27, 00:42:00,VALID,916.828,VALID,0,VALID,100,VALID,0,VALID,21.0604,VALID,68,VALID,0,
2009-06-27, 00:43:00,VALID,916.881,VALID,0,VALID,100,VALID,-0.0509425,VALID,21.0282,VALID,68,VALID,0,
2009-06-27, 00:44:00,VALID,916.908,VALID,0,VALID,100,VALID,0.0169808,VALID,21.0442,VALID,45,VALID,0,
2009-06-27, 00:45:00,VALID,916.918,VALID,0,VALID,100,VALID,0.0169808,VALID,21.0563,VALID,22,VALID,0,
2009-06-27, 00:46:00,VALID,916.913,VALID,0,VALID,100,VALID,-0.0339617,VALID,21.0404,VALID,28,VALID,0,
2009-06-27, 00:47:00,VALID,916.897,VALID,0,VALID,100,VALID,0,VALID,21.0561,VALID,20,VALID,0.0542869,
2009-06-27, 00:48:00,VALID,916.876,VALID,0,VALID,100,VALID,-0.0169808,VALID,21.0398,VALID,30,VALID,0,
2009-06-27, 00:49:00,VALID,916.84,VALID,0,VALID,100,VALID,0,VALID,21.0106,VALID,19,VALID,0.114583,
2009-06-27, 00:50:00,VALID,916.8,VALID,0,VALID,100,VALID,0.0339617,VALID,20.9844,VALID,27,VALID,0.00651042,
2009-06-27, 00:51:00,VALID,916.775,VALID,0,VALID,100,VALID,0.0169808,VALID,20.9655,VALID,32,VALID,0.169829,
2009-06-27, 00:52:00,VALID,916.74,VALID,0,VALID,100,VALID,0,VALID,20.933,VALID,32,VALID,0,
2009-06-27, 00:53:00,VALID,916.7,VALID,0,VALID,100,VALID,-0.0169808,VALID,20.9265,VALID,42,VALID,0.0438988,
2009-06-27, 00:54:00,VALID,916.673,VALID,0,VALID,100,VALID,0,VALID,20.9298,VALID,51,VALID,0,
2009-06-27, 00:55:00,VALID,916.645,VALID,0,VALID,100,VALID,0,VALID,20.933,VALID,39,VALID,0.0012718,
2009-06-27, 00:56:00,VALID,916.617,VALID,0,VALID,100,VALID,-0.0169808,VALID,20.9103,VALID,53,VALID,0,
2009-06-27, 00:57:00,VALID,916.605,VALID,0,VALID,100,VALID,-0.0169808,VALID,20.9116,VALID,43,VALID,0.0803571,
2009-06-27, 00:58:00,VALID,916.597,VALID,0,VALID,100,VALID,-0.0509425,VALID,20.9408,VALID,61,VALID,0,
2009-06-27, 00:59:00,VALID,916.593,VALID,0,VALID,100,VALID,-0.0169808,VALID,20.9535,VALID,51,VALID,0,
2009-06-27, 01:00:00,VALID,916.586,VALID,0,VALID,100,VALID,-0.0169808,VALID,20.9698,VALID,47,VALID,0,
2009-06-27, 01:01:00,VALID,916.574,VALID,0,VALID,100,VALID,-0.0509425,VALID,20.947,VALID,45,VALID,0,
2009-06-27, 01:02:00,VALID,916.567,VALID,0,VALID,100,VALID,-0.0679233,VALID,20.9148,VALID,43,VALID,0,
2009-06-27, 01:03:00,VALID,916.554,VALID,0,VALID,100,VALID,-0.0849042,VALID,20.9181,VALID,43,VALID,0,
2009-06-27, 01:04:00,VALID,916.549,VALID,0,VALID,100,VALID,-0.0169808,VALID,20.9503,VALID,46,VALID,0,
2009-06-27, 01:05:00,VALID,916.542,VALID,0,VALID,100,VALID,-0.0679233,VALID,20.9443,VALID,51,VALID,0,
2009-06-27, 01:06:00,VALID,916.554,VALID,0,VALID,100,VALID,-0.0679233,VALID,20.9865,VALID,48,VALID,0,
2009-06-27, 01:07:00,VALID,916.552,VALID,0,VALID,100,VALID,-0.0169808,VALID,21.0052,VALID,45,VALID,0.0668826,
2009-06-27, 01:08:00,VALID,916.563,VALID,0,VALID,100,VALID,-0.0509425,VALID,21.0055,VALID,8,VALID,0.0598958,
2009-06-27, 01:09:00,VALID,916.595,VALID,0,VALID,100,VALID,-0.0509425,VALID,20.9827,VALID,58,VALID,0.0942708,
2009-06-27, 01:10:00,VALID,916.599,VALID,0,VALID,100,VALID,-0.0679233,VALID,20.9538,VALID,75,VALID,0.126524,
2009-06-27, 01:11:00,VALID,916.599,VALID,0,VALID,100,VALID,-0.0169808,VALID,20.9241,VALID,77,VALID,0.182927,
2009-06-27, 01:12:00,VALID,916.593,VALID,0,VALID,100,VALID,-0.0849042,VALID,20.9181,VALID,59,VALID,0,
2009-06-27, 01:13:00,VALID,916.573,VALID,0,VALID,100,VALID,-0.0169808,VALID,20.9603,VALID,59,VALID,0,
2009-06-27, 01:14:00,VALID,916.532,VALID,0,VALID,100,VALID,-0.0339617,VALID,20.9603,VALID,66,VALID,0,
2009-06-27, 01:15:00,VALID,916.486,VALID,0,VALID,100,VALID,-0.0679233,VALID,20.9343,VALID,69,VALID,0,
2009-06-27, 01:16:00,VALID,916.446,VALID,0,VALID,100,VALID,-0.0849042,VALID,20.9281,VALID,69,VALID,0,
2009-06-27, 01:17:00,VALID,916.42,VALID,0,VALID,100,VALID,-0.0679233,VALID,20.9081,VALID,69,VALID,0,
2009-06-27, 01:18:00,VALID,916.387,VALID,0,VALID,100,VALID,-0.0509425,VALID,20.9081,VALID,69,VALID,0,
2009-06-27, 01:19:00,VALID,916.372,VALID,0,VALID,100,VALID,-0.0169808,VALID,20.9246,VALID,35,VALID,0,
2009-06-27, 01:20:00,VALID,916.379,VALID,0,VALID,100,VALID,-0.0169808,VALID,20.9078,VALID,25,VALID,0,
2009-06-27, 01:21:00,VALID,916.38,VALID,0,VALID,100,VALID,-0.0339617,VALID,20.8886,VALID,20,VALID,0,
2009-06-27, 01:22:00,VALID,916.392,VALID,0,VALID,100,VALID,-0.0339617,VALID,20.9211,VALID,9,VALID,0.365785,
2009-06-27, 01:23:00,VALID,916.42,VALID,0,VALID,100,VALID,-0.0679233,VALID,20.9503,VALID,12,VALID,0.752841,
2009-06-27, 01:24:00,VALID,916.445,VALID,0,VALID,100,VALID,-0.0509425,VALID,20.9695,VALID,11,VALID,0.803385,
2009-06-27, 01:25:00,VALID,916.482,VALID,0,VALID,100,VALID,-0.0339617,VALID,20.9633,VALID,8,VALID,0.028343,
2009-06-27, 01:26:00,VALID,916.508,VALID,0,VALID,100,VALID,-0.0509425,VALID,20.9535,VALID,12,VALID,0,
2009-06-27, 01:27:00,VALID,916.537,VALID,0,VALID,100,VALID,-0.0169808,VALID,20.9435,VALID,25,VALID,0,
2009-06-27, 01:28:00,VALID,916.557,VALID,0,VALID,100,VALID,0,VALID,20.9373,VALID,20,VALID,0,
2009-06-27, 01:29:00,VALID,916.556,VALID,0,VALID,100,VALID,-0.0679233,VALID,20.9373,VALID,2,VALID,0,
2009-06-27, 01:30:00,VALID,916.57,VALID,0,VALID,100,VALID,-0.0169808,VALID,20.9311,VALID,1,VALID,0,
2009-06-27, 01:31:00,VALID,916.566,VALID,0,VALID,100,VALID,-0.0339617,VALID,20.9503,VALID,360,VALID,0,
2009-06-27, 01:32:00,VALID,916.566,VALID,0,VALID,100,VALID,-0.0849042,VALID,20.9633,VALID,360,VALID,0,
2009-06-27, 01:33:00,VALID,916.558,VALID,0,VALID,100,VALID,-0.0339617,VALID,20.9538,VALID,355,VALID,0,
2009-06-27, 01:34:00,VALID,916.553,VALID,0,VALID,100,VALID,-0.101885,VALID,20.9635,VALID,11,VALID,0,
2009-06-27, 01:35:00,VALID,916.536,VALID,0,VALID,100,VALID,-0.0339617,VALID,20.947,VALID,26,VALID,0,
2009-06-27, 01:36:00,VALID,916.537,VALID,0,VALID,100,VALID,-0.0679233,VALID,20.96,VALID,21,VALID,0,
2009-06-27, 01:37:00,VALID,916.544,VALID,0,VALID,100,VALID,-0.0679233,VALID,20.9727,VALID,19,VALID,0,
2009-06-27, 01:38:00,VALID,916.558,VALID,0,VALID,100,VALID,-0.0169808,VALID,20.986,VALID,339,VALID,0,
2009-06-27, 01:39:00,VALID,916.563,VALID,0,VALID,100,VALID,0,VALID,20.963,VALID,358,VALID,0,
2009-06-27, 01:40:00,VALID,916.568,VALID,0,VALID,100,VALID,-0.0509425,VALID,20.9633,VALID,358,VALID,0,
2009-06-27, 01:41:00,VALID,916.581,VALID,0,VALID,100,VALID,0,VALID,20.9827,VALID,358,VALID,0,
2009-06-27, 01:42:00,VALID,916.572,VALID,0,VALID,100,VALID,-0.0339617,VALID,20.9703,VALID,358,VALID,0,
2009-06-27, 01:43:00,VALID,916.563,VALID,0,VALID,100,VALID,-0.101885,VALID,20.9765,VALID,358,VALID,0,
2009-06-27, 01:44:00,VALID,916.533,VALID,0,VALID,100,VALID,-0.101885,VALID,21.016,VALID,358,VALID,0,
2009-06-27, 01:45:00,VALID,916.521,VALID,0,VALID,100,VALID,-0.0849042,VALID,21.0193,VALID,358,VALID,0,
2009-06-27, 01:46:00,VALID,916.488,VALID,0,VALID,100,VALID,-0.101885,VALID,20.99,VALID,358,VALID,0,
2009-06-27, 01:47:00,VALID,916.462,VALID,0,VALID,100,VALID,-0.0849042,VALID,20.9833,VALID,358,VALID,0,
2009-06-27, 01:48:00,VALID,916.428,VALID,0,VALID,100,VALID,-0.0679233,VALID,20.9992,VALID,358,VALID,0,
2009-06-27, 01:49:00,VALID,916.405,VALID,0,VALID,100,VALID,-0.0849042,VALID,21.035,VALID,359,VALID,0,
2009-06-27, 01:50:00,VALID,916.38,VALID,0,VALID,100,VALID,-0.0679233,VALID,21.0674,VALID,359,VALID,0,
2009-06-27, 01:51:00,VALID,916.394,VALID,0,VALID,100,VALID,-0.0849042,VALID,21.0839,VALID,38,VALID,0,
2009-06-27, 01:52:00,VALID,916.414,VALID,0,VALID,100,VALID,-0.0679233,VALID,21.1096,VALID,36,VALID,0,
2009-06-27, 01:53:00,VALID,916.435,VALID,0,VALID,100,VALID,-0.101885,VALID,21.1099,VALID,38,VALID,0,
2009-06-27, 01:54:00,VALID,916.456,VALID,0,VALID,100,VALID,-0.0679233,VALID,21.1296,VALID,44,VALID,0,
2009-06-27, 01:55:00,VALID,916.461,VALID,0,VALID,100,VALID,-0.101885,VALID,21.0807,VALID,33,VALID,0.0237926,
2009-06-27, 01:56:00,VALID,916.466,VALID,0,VALID,100,VALID,-0.101885,VALID,21.0709,VALID,23,VALID,0.00223214,
2009-06-27, 01:57:00,VALID,916.463,VALID,0,VALID,100,VALID,-0.101885,VALID,21.0263,VALID,15,VALID,0,
2009-06-27, 01:58:00,VALID,916.445,VALID,0,VALID,100,VALID,-0.0509425,VALID,20.9957,VALID,14,VALID,0,
2009-06-27, 01:59:00,VALID,916.447,VALID,0,VALID,100,VALID,-0.0849042,VALID,20.999,VALID,14,VALID,0.00109012,
2009-06-27, 02:00:00,VALID,916.424,VALID,0,VALID,100,VALID,-0.0849042,VALID,21.0063,VALID,14,VALID,0,
2009-06-27, 02:01:00,VALID,916.385,VALID,0,VALID,100,VALID,-0.101885,VALID,21.0252,VALID,14,VALID,0,
2009-06-27, 02:02:00,VALID,916.347,VALID,0,VALID,100,VALID,-0.101885,VALID,21.0455,VALID,14,VALID,0,
2009-06-27, 02:03:00,VALID,916.281,VALID,0,VALID,100,VALID,-0.0679233,VALID,21.0352,VALID,14,VALID,0,
2009-06-27, 02:04:00,VALID,916.232,VALID,0,VALID,100,VALID,-0.0849042,VALID,21.0682,VALID,360,VALID,0,
2009-06-27, 02:05:00,VALID,916.173,VALID,0,VALID,100,VALID,-0.0849042,VALID,21.0517,VALID,359,VALID,0.0494186,
2009-06-27, 02:06:00,VALID,916.12,VALID,0,VALID,100,VALID,-0.0849042,VALID,21.0452,VALID,1,VALID,0.00223214,
2009-06-27, 02:07:00,VALID,916.09,VALID,0,VALID,100,VALID,-0.0679233,VALID,21.0157,VALID,6,VALID,0,
2009-06-27, 02:08:00,VALID,916.082,VALID,0,VALID,100,VALID,-0.0679233,VALID,21.0222,VALID,6,VALID,0,
2009-06-27, 02:09:00,VALID,916.091,VALID,0,VALID,100,VALID,-0.0679233,VALID,21.0122,VALID,293,VALID,0,
2009-06-27, 02:10:00,VALID,916.124,VALID,0,VALID,100,VALID,-0.101885,VALID,21.0063,VALID,229,VALID,0.00726744,
2009-06-27, 02:11:00,VALID,916.167,VALID,0,VALID,100,VALID,-0.118866,VALID,20.9968,VALID,193,VALID,0.117383,
2009-06-27, 02:12:00,VALID,916.206,VALID,0,VALID,100,VALID,0,VALID,20.9817,VALID,190,VALID,0.152798,
2009-06-27, 02:13:00,VALID,916.229,VALID,0,VALID,100,VALID,0,VALID,20.9519,VALID,190,VALID,0,
2009-06-27, 02:14:00,VALID,916.243,VALID,0,VALID,100,VALID,-0.0169808,VALID,20.9525,VALID,190,VALID,0,
2009-06-27, 02:15:00,VALID,916.231,VALID,0,VALID,100,VALID,0,VALID,20.9495,VALID,190,VALID,0,
2009-06-27, 02:16:00,VALID,916.214,VALID,0,VALID,100,VALID,0,VALID,20.9598,VALID,190,VALID,0,
2009-06-27, 02:17:00,VALID,916.188,VALID,0,VALID,100,VALID,0,VALID,20.9684,VALID,190,VALID,0,
2009-06-27, 02:18:00,VALID,916.183,VALID,0,VALID,100,VALID,0,VALID,20.9627,VALID,190,VALID,0,
2009-06-27, 02:19:00,VALID,916.145,VALID,0,VALID,100,VALID,0.0169808,VALID,20.989,VALID,190,VALID,0,
2009-06-27, 02:20:00,VALID,916.14,VALID,0,VALID,100,VALID,-0.0339617,VALID,21.0049,VALID,122,VALID,0,
2009-06-27, 02:21:00,VALID,916.119,VALID,0,VALID,100,VALID,0.0169808,VALID,21.0209,VALID,14,VALID,0,
2009-06-27, 02:22:00,VALID,916.103,VALID,0,VALID,100,VALID,0,VALID,21.0631,VALID,14,VALID,0,
2009-06-27, 02:23:00,VALID,916.099,VALID,0,VALID,100,VALID,0,VALID,21.0861,VALID,14,VALID,0,
2009-06-27, 02:24:00,VALID,916.107,VALID,0,VALID,100,VALID,0.0339617,VALID,21.0861,VALID,14,VALID,0,
2009-06-27, 02:25:00,VALID,916.101,VALID,0,VALID,100,VALID,0,VALID,21.0856,VALID,14,VALID,0,
2009-06-27, 02:26:00,VALID,916.117,VALID,0,VALID,100,VALID,0,VALID,21.1058,VALID,17,VALID,0,
2009-06-27, 02:27:00,VALID,916.136,VALID,0,VALID,100,VALID,-0.0849042,VALID,21.1137,VALID,26,VALID,0,
2009-06-27, 02:28:00,VALID,916.148,VALID,0,VALID,100,VALID,-0.0509425,VALID,21.1093,VALID,39,VALID,0.136418,
2009-06-27, 02:29:00,VALID,916.152,VALID,0,VALID,100,VALID,-0.0849042,VALID,21.1294,VALID,34,VALID,0.0745192,
2009-06-27, 02:30:00,VALID,916.133,VALID,0,VALID,100,VALID,-0.101885,VALID,21.1229,VALID,42,VALID,0.00121528,
2009-06-27, 02:31:00,VALID,916.132,VALID,0,VALID,100,VALID,-0.101885,VALID,21.1529,VALID,41,VALID,0,
2009-06-27, 02:32:00,VALID,916.128,VALID,0,VALID,100,VALID,-0.0849042,VALID,21.1461,VALID,41,VALID,0,
2009-06-27, 02:33:00,VALID,916.143,VALID,0,VALID,100,VALID,-0.101885,VALID,21.1459,VALID,41,VALID,0,
2009-06-27, 02:34:00,VALID,916.155,VALID,0,VALID,100,VALID,-0.0849042,VALID,21.1496,VALID,41,VALID,0,
2009-06-27, 02:35:00,VALID,916.177,VALID,0,VALID,100,VALID,-0.101885,VALID,21.1396,VALID,41,VALID,0,
2009-06-27, 02:36:00,VALID,916.178,VALID,0,VALID,100,VALID,-0.101885,VALID,21.1594,VALID,41,VALID,0,
2009-06-27, 02:37:00,VALID,916.172,VALID,0,VALID,100,VALID,-0.135847,VALID,21.1491,VALID,41,VALID,0,
2009-06-27, 02:38:00,VALID,916.151,VALID,0,VALID,100,VALID,-0.101885,VALID,21.1429,VALID,40,VALID,0,
2009-06-27, 02:39:00,VALID,916.162,VALID,0,VALID,100,VALID,-0.101885,VALID,21.1302,VALID,39,VALID,0,
2009-06-27, 02:40:00,VALID,916.127,VALID,0,VALID,100,VALID,-0.0849042,VALID,21.0839,VALID,38,VALID,0,
2009-06-27, 02:41:00,VALID,916.128,VALID,0,VALID,100,VALID,-0.118866,VALID,21.075,VALID,38,VALID,0,
2009-06-27, 02:42:00,VALID,916.12,VALID,0,VALID,100,VALID,-0.0849042,VALID,21.0417,VALID,37,VALID,0,
2009-06-27, 02:43:00,VALID,916.094,VALID,0,VALID,100,VALID,-0.101885,VALID,21.052,VALID,37,VALID,0,
2009-06-27, 02:44:00,VALID,916.098,VALID,0,VALID,100,VALID,-0.118866,VALID,21.055,VALID,37,VALID,0,
2009-06-27, 02:45:00,VALID,916.092,VALID,0,VALID,100,VALID,-0.101885,VALID,21.078,VALID,37,VALID,0,
2009-06-27, 02:46:00,VALID,916.104,VALID,0,VALID,100,VALID,-0.101885,VALID,21.0644,VALID,37,VALID,0,
2009-06-27, 02:47:00,VALID,916.091,VALID,0,VALID,100,VALID,-0.0849042,VALID,21.045,VALID,37,VALID,0,
2009-06-27, 02:48:00,VALID,916.104,VALID,0,VALID,100,VALID,-0.118866,VALID,21.052,VALID,37,VALID,0,
2009-06-27, 02:49:00,VALID,916.089,VALID,0,VALID,100,VALID,-0.101885,VALID,21.0522,VALID,37,VALID,0,
2009-06-27, 02:50:00,VALID,916.081,VALID,0,VALID,100,VALID,-0.101885,VALID,20.9938,VALID,37,VALID,0,
2009-06-27, 02:51:00,VALID,916.069,VALID,0,VALID,100,VALID,-0.101885,VALID,20.9546,VALID,37,VALID,0,
2009-06-27, 02:52:00,VALID,916.058,VALID,0,VALID,100,VALID,-0.0849042,VALID,20.9211,VALID,37,VALID,0,
2009-06-27, 02:53:00,VALID,916.041,VALID,0,VALID,100,VALID,-0.0679233,VALID,20.9091,VALID,37,VALID,0,
2009-06-27, 02:54:00,VALID,916.021,VALID,0,VALID,100,VALID,-0.101885,VALID,20.8894,VALID,37,VALID,0,
2009-06-27, 02:55:00,VALID,916.01,VALID,0,VALID,100,VALID,-0.118866,VALID,20.8932,VALID,360,VALID,0,
2009-06-27, 02:56:00,VALID,916.012,VALID,0,VALID,100,VALID,-0.118866,VALID,20.9129,VALID,253,VALID,0,
2009-06-27, 02:57:00,VALID,916.014,VALID,0,VALID,100,VALID,-0.101885,VALID,20.9119,VALID,253,VALID,0,
2009-06-27, 02:58:01,VALID,916.012,VALID,0,VALID,100,VALID,-0.0849042,VALID,20.9413,VALID,253,VALID,0,
2009-06-27, 02:59:00,VALID,916.013,VALID,0,VALID,100,VALID,-0.118866,VALID,20.9508,VALID,253,VALID,0,
2009-06-27, 03:00:00,VALID,916.016,VALID,0,VALID,100,VALID,-0.118866,VALID,20.9416,VALID,253,VALID,0,
2009-06-27, 03:01:00,VALID,916.036,VALID,0,VALID,100,VALID,-0.135847,VALID,20.9449,VALID,253,VALID,0,
2009-06-27, 03:02:00,VALID,916.053,VALID,0,VALID,100,VALID,-0.101885,VALID,20.9419,VALID,253,VALID,0,
2009-06-27, 03:03:00,VALID,916.065,VALID,0,VALID,100,VALID,-0.101885,VALID,20.9346,VALID,253,VALID,0,
2009-06-27, 03:04:00,VALID,916.075,VALID,0,VALID,100,VALID,-0.101885,VALID,20.9446,VALID,253,VALID,0,
2009-06-27, 03:05:00,VALID,916.069,VALID,0,VALID,100,VALID,-0.118866,VALID,20.9614,VALID,253,VALID,0,
2009-06-27, 03:06:01,VALID,916.073,VALID,0,VALID,100,VALID,-0.101885,VALID,20.9906,VALID,262,VALID,0,
2009-06-27, 03:07:00,VALID,916.078,VALID,0,VALID,100,VALID,-0.0849042,VALID,21.0033,VALID,265,VALID,0,
2009-06-27, 03:08:00,VALID,916.072,VALID,0,VALID,100,VALID,-0.118866,VALID,21.006,VALID,265,VALID,0,
2009-06-27, 03:09:01,VALID,916.064,VALID,0,VALID,100,VALID,-0.101885,VALID,20.9895,VALID,265,VALID,0,
2009-06-27, 03:10:00,VALID,916.063,VALID,0,VALID,100,VALID,-0.101885,VALID,20.9898,VALID,265,VALID,0,
2009-06-27, 03:11:00,VALID,916.055,VALID,0,VALID,100,VALID,-0.118866,VALID,21.013,VALID,265,VALID,0,
2009-06-27, 03:12:00,VALID,916.056,VALID,0,VALID,100,VALID,-0.0169808,VALID,21.0312,VALID,265,VALID,0,
2009-06-27, 03:13:00,VALID,916.067,VALID,0,VALID,100,VALID,0.0339617,VALID,21.0074,VALID,265,VALID,0,
2009-06-27, 03:14:00,VALID,916.07,VALID,0,VALID,100,VALID,0.0339617,VALID,21.0044,VALID,277,VALID,0,
2009-06-27, 03:15:00,VALID,916.079,VALID,0,VALID,100,VALID,0,VALID,20.9747,VALID,353,VALID,0.0539435,
2009-06-27, 03:16:00,VALID,916.073,VALID,0,VALID,100,VALID,0.0509425,VALID,20.9655,VALID,19,VALID,0,
2009-06-27, 03:17:00,VALID,916.078,VALID,0,VALID,100,VALID,0.0339617,VALID,20.9555,VALID,34,VALID,0,
2009-06-27, 03:18:00,VALID,916.049,VALID,0,VALID,100,VALID,0.0169808,VALID,20.9979,VALID,23,VALID,0.0641352,
2009-06-27, 03:19:00,VALID,916.038,VALID,0,VALID,100,VALID,-0.0169808,VALID,21.0109,VALID,21,VALID,0,
2009-06-27, 03:20:01,VALID,916.024,VALID,0,VALID,100,VALID,0.0169808,VALID,20.9879,VALID,23,VALID,0,
2009-06-27, 03:21:00,VALID,916.016,VALID,0,VALID,100,VALID,0.0339617,VALID,20.9879,VALID,23,VALID,0,
2009-06-27, 03:22:01,VALID,916.006,VALID,0,VALID,100,VALID,-0.0169808,VALID,20.9784,VALID,13,VALID,0,
2009-06-27, 03:23:00,VALID,915.995,VALID,0,VALID,100,VALID,0.0169808,VALID,20.9817,VALID,9,VALID,0,
2009-06-27, 03:24:00,VALID,915.982,VALID,0,VALID,100,VALID,0,VALID,20.9852,VALID,9,VALID,0,
2009-06-27, 03:25:00,VALID,915.978,VALID,0,VALID,100,VALID,0,VALID,21.0041,VALID,9,VALID,0,
2009-06-27, 03:26:00,VALID,915.975,VALID,0,VALID,100,VALID,0.0339617,VALID,21.0077,VALID,9,VALID,0,
2009-06-27, 03:27:00,VALID,915.964,VALID,0,VALID,100,VALID,-0.101885,VALID,21.0063,VALID,9,VALID,0,
2009-06-27, 03:28:00,VALID,915.972,VALID,0,VALID,100,VALID,-0.118866,VALID,20.993,VALID,9,VALID,0,
2009-06-27, 03:29:01,VALID,915.982,VALID,0,VALID,100,VALID,-0.101885,VALID,20.9863,VALID,9,VALID,0,
2009-06-27, 03:30:01,VALID,915.983,VALID,0,VALID,100,VALID,-0.101885,VALID,20.9641,VALID,9,VALID,0,
2009-06-27, 03:31:01,VALID,915.982,VALID,0,VALID,100,VALID,-0.101885,VALID,20.9578,VALID,9,VALID,0,
2009-06-27, 03:32:00,VALID,915.985,VALID,0,VALID,100,VALID,-0.0679233,VALID,20.9638,VALID,9,VALID,0,
2009-06-27, 03:33:00,VALID,915.982,VALID,0,VALID,100,VALID,-0.0679233,VALID,20.9703,VALID,9,VALID,0,
2009-06-27, 03:34:00,VALID,915.987,VALID,0,VALID,100,VALID,-0.0849042,VALID,20.9633,VALID,26,VALID,0,
2009-06-27, 03:35:01,VALID,915.988,VALID,0,VALID,100,VALID,-0.101885,VALID,20.9703,VALID,24,VALID,0,
2009-06-27, 03:36:01,VALID,916,VALID,0,VALID,100,VALID,-0.0679233,VALID,20.9698,VALID,41,VALID,0.0926943,
2009-06-27, 03:37:00,VALID,915.991,VALID,0,VALID,100,VALID,-0.0679233,VALID,20.97,VALID,31,VALID,0.0337271,
2009-06-27, 03:38:01,VALID,915.975,VALID,0,VALID,100,VALID,-0.0849042,VALID,20.9795,VALID,30,VALID,0,
2009-06-27, 03:39:00,VALID,915.967,VALID,0,VALID,100,VALID,-0.0679233,VALID,20.993,VALID,29,VALID,0,
2009-06-27, 03:40:01,VALID,915.941,VALID,0,VALID,100,VALID,-0.101885,VALID,20.9803,VALID,26,VALID,0,
2009-06-27, 03:41:00,VALID,915.917,VALID,0,VALID,100,VALID,-0.0849042,VALID,20.947,VALID,26,VALID,0,
2009-06-27, 03:42:01,VALID,915.894,VALID,0,VALID,100,VALID,-0.101885,VALID,20.957,VALID,26,VALID,0,
2009-06-27, 03:43:00,VALID,915.887,VALID,0,VALID,100,VALID,-0.118866,VALID,20.9568,VALID,26,VALID,0,
2009-06-27, 03:44:01,VALID,915.875,VALID,0,VALID,100,VALID,-0.0339617,VALID,20.973,VALID,26,VALID,0,
2009-06-27, 03:45:01,VALID,915.859,VALID,0,VALID,100,VALID,-0.101885,VALID,21.0155,VALID,26,VALID,0,
2009-06-27, 03:46:01,VALID,915.857,VALID,0,VALID,100,VALID,-0.0679233,VALID,21.0314,VALID,26,VALID,0,
2009-06-27, 03:47:00,VALID,915.836,VALID,0,VALID,100,VALID,-0.101885,VALID,21.035,VALID,26,VALID,0,
2009-06-27, 03:48:01,VALID,915.822,VALID,0,VALID,100,VALID,-0.0849042,VALID,21.0285,VALID,26,VALID,0,
2009-06-27, 03:49:01,VALID,915.828,VALID,0,VALID,100,VALID,-0.101885,VALID,21.0282,VALID,16,VALID,0,
2009-06-27, 03:50:01,VALID,915.831,VALID,0,VALID,100,VALID,-0.101885,VALID,21.0187,VALID,28,VALID,0.412642,
2009-06-27, 03:51:01,VALID,915.832,VALID,0,VALID,100,VALID,-0.118866,VALID,21.019,VALID,29,VALID,0.177871,